Location: Arrodets-la-Barthe
(43.0306°N, 0.2829°E)
Time: 01:51:45
(UTC+00:00)

Cosmos 2344 - Pass Details

Date: 04 June 2022
Orbit: 1228 x 3015 km, 63.3° (Epoch: 04 July)

Event Time Altitude Azimuth Distance (km) Brightness Sun altitude
Rises 01:54:00 0° 322° (NW) 4,370 6.7 -19.2°
Reaches altitude 10° 01:56:50 10° 330° (NNW) 3,523 6.3 -19.0°
Maximum altitude 02:04:57 41° 40° (NE) 2,324 5.5 -18.3°
Drops below altitude 10° 02:15:44 10° 107° (ESE) 4,680 6.7 -17.2°
Sets 02:20:08 0° 115° (ESE) 5,956 7.2 -16.8°
